Jack C. Davis Observatory, Carson City, Nevada Weather observations

Data are for observation ending at time listed.
 Day   Time    Ave.   Ave.  Ave.  Vector   Max.   Stn.    Total    Solar   Ave.  
  of    of     Air    Rel.  Wind   Wind    Wind   Baro.  Precip.   Rad.    Soil  
Year   Day     Temp.  Hum.  Speed  Dir.    Gust   Pres.                    Temp. 
2026   (PST)    F      %     mph   deg.    mph     mb.     in.     W/m2     F   
------------------------------------------------------------------------------
 124    5:30   46.7    66    5.6   284      7.5   841.6    0.00      12    999.0
 124    5:40   47.2    65    5.0   273      7.1   841.5    0.00      32    999.0
 124    5:50   47.9    65    2.4   283      4.4   841.5    0.00      88    999.0
 124    6:00   49.2    62    3.7   284      5.6   841.5    0.00     131    999.0
 124    6:10   50.3    61    2.4     8      4.7   841.7    0.00     145    999.0
 124    6:20   51.5    58    1.9   114      3.4   841.7    0.00     222    999.0
 124    6:30   52.7    56    3.5   142      5.8   841.7    0.00     263    999.0
 124    6:40   51.3    58    2.3    96      4.2   841.8    0.00     203    999.0
 124    6:50   51.0    59    1.8   110      3.9   841.8    0.00     145    999.0
 124    7:00   50.2    60    1.3   108      3.7   841.7    0.00     150    999.0
 124    7:10   50.5    59    1.2    74      3.6   841.8    0.00     146    999.0
 124    7:20   50.2    61    2.1    55      4.7   841.8    0.00     123    999.0
 124    7:30   50.3    60    1.9    14      5.8   841.7    0.00     109    999.0
 124    7:40   49.9    61    3.2    31      6.2   841.7    0.00      66    999.0
 124    7:50   49.3    62    2.7    46      5.1   841.9    0.00      40    999.0
 124    8:00   49.0    63    2.6    97      6.4   842.3    0.00      45    999.0
 124    8:10   48.7    68    4.8   279      8.1   841.9    0.01      92    999.0
 124    8:20   49.2    76    2.6   345      5.8   841.7    0.00     324    999.0
 124    8:30   51.0    71    3.2   105      6.3   841.8    0.00     346    999.0
 124    8:40   51.6    67    2.6   109      4.8   841.9    0.00     318    999.0
 124    8:50   52.4    62    4.1   328     11.8   841.8    0.00     337    999.0
 124    9:00   52.7    60    7.3   322     15.8   841.6    0.00     319    999.0
 124    9:10   52.8    61    4.6   334     11.0   841.7    0.00     349    999.0
 124    9:20   54.8    58    3.8   337      8.8   841.8    0.00     711    999.0
 124    9:30   57.4    54    3.1   340      8.0   841.9    0.00     793    999.0
 124    9:40   59.1    51    2.1   225      5.0   842.0    0.00     656    999.0
 124    9:50   56.6    54    4.5   329      9.0   842.0    0.00     431    999.0
 124   10:00   54.9    55    4.4   330     10.4   842.1    0.00     327    999.0
 124   10:10   54.9    56    3.3   332      7.6   842.1    0.00     314    999.0
 124   10:20   54.6    56    2.8   349      9.0   842.2    0.00     225    999.0
 124   10:30   53.9    58    3.0   347      9.7   842.2    0.00     145    999.0
 124   10:40   53.1    60    4.1   333      9.0   842.2    0.00      89    999.0
 124   10:50   52.6    62    2.5   344      8.2   842.3    0.00      66    999.0
 124   11:00   51.5    70    2.8   340      7.5   842.4    0.01      76    999.0
 124   11:10   50.8    74    1.8    15      4.2   842.4    0.00      94    999.0
 124   11:20   50.8    73    1.6    25      3.8   842.5    0.00      79    999.0
 124   11:30   50.6    74    3.4   132      6.5   842.6    0.00      51    999.0
 124   11:40   49.0    70    3.4   124      7.1   842.9    0.02      41    999.0
 124   11:50   48.5    73    1.0   174      2.9   842.9    0.00      42    999.0
 124   12:00   48.7    77    0.9   200      3.3   842.8    0.02     106    999.0
 124   12:10   48.7    77    1.9   290      3.4   842.8    0.01     122    999.0
 124   12:20   48.5    78    3.4   258      8.0   842.6    0.01     140    999.0
 124   12:30   48.0    78    4.6   243      8.2   842.3    0.01     145    999.0
 124   12:40   48.0    79    2.0   196      5.2   842.2    0.01      92    999.0
 124   12:50   48.4    81    0.6    50      2.3   842.1    0.01      74    999.0
 124   13:00   47.9    80    2.2    34      4.1   842.1    0.00      32    999.0
 124   13:10   47.4    81    2.6   328      9.5   842.1    0.01      22    999.0
 124   13:20   46.8    84   10.7   309     15.2   841.9    0.01      58    999.0
 124   13:30   46.9    83    7.7   309     16.9   841.7    0.01     168    999.0
 124   13:40   48.3    78    5.4   279      9.4   841.6    0.00      95    999.0
 124   13:50   48.0    82    6.1   196      9.3   841.6    0.00      69    999.0
 124   14:00   47.8    86    3.5   178      7.4   841.6    0.00      83    999.0
 124   14:10   48.1    84    1.4   115      3.5   841.6    0.01      76    999.0
 124   14:20   48.7    83    3.3   128      7.2   841.5    0.00     115    999.0
 124   14:30   48.6    82    5.0   153     11.1   841.4    0.00      77    999.0
 124   14:40   48.2    81    3.7   126      6.4   841.4    0.00     132    999.0
 124   14:50   48.8    80    2.6   169      5.0   841.1    0.00     210    999.0
 124   15:00   49.4    80    2.1   290      3.9   840.8    0.00     327    999.0
 124   15:10   50.3    78    4.7    74      7.5   840.7    0.00     343    999.0
 124   15:20   49.9    78    4.0    25      8.7   840.8    0.00     163    999.0
 124   15:30   50.1    77    2.0   334      5.2   840.8    0.00     105    999.0
 124   15:40   49.8    78    3.0   337      6.5   841.2    0.00      49    999.0
 124   15:50   49.4    78    4.9   299     12.3   841.2    0.00     127    999.0
 124   16:00   48.8    75    3.3   212      8.5   841.1    0.00      79    999.0
 124   16:10   48.3    71    7.3   185     14.4   841.2    0.00      31    999.0
 124   16:20   47.1    72    8.5   234     16.1   841.2    0.02      28    999.0
 124   16:30   46.6    75    7.9   250     15.1   841.4    0.01      11    999.0
 124   16:40   46.5    78    6.2   233     10.1   841.7    0.02       6    999.0
 124   16:50   45.3    78    7.9   232     12.9   841.8    0.05       9    999.0
 124   17:00   44.9    79    7.9   253     12.5   841.9    0.03       9    999.0
 124   17:10   45.2    79    5.8   266      9.9   841.9    0.00       4    999.0
 124   17:20   45.3    80    4.2   273      9.2   841.8    0.01       3    999.0
 124   17:30   45.0    83    1.2   266      3.5   841.8    0.01       5    999.0
 124   17:40   45.6    81    2.2   140      5.4   841.8    0.01       8    999.0
 124   17:50   45.6    84    1.6   134      4.7   841.9    0.00       5    999.0
 124   18:00   45.1    86    2.0   262      5.5   841.5    0.02       3    999.0
 124   18:10   44.8    86    2.3   239      5.8   840.9    0.01       3    999.0
 124   18:20   44.8    87    2.6   126      4.3   840.4    0.00       4    999.0
 124   18:30   45.0    88    3.7    91      6.4   840.4    0.00       2    999.0
 124   18:40   45.0    90    3.7    36      6.2   840.8    0.00       1    999.0
 124   18:50   44.7    90    2.9    18      6.1   841.2    0.00       1    999.0
 124   19:00   44.4    88    2.9   355      5.0   841.4    0.00       1    999.0
 124   19:10   44.5    88    1.4   306      3.4   841.6    0.00       1    999.0
 124   19:20   44.7    88    1.5   321      3.0   841.7    0.00       0    999.0
 124   19:30   44.8    88    2.4   307      6.6   841.6    0.00       0    999.0
 124   19:40   45.5    84    2.7   328      9.2   841.4    0.00       0    999.0
 124   19:50   45.7    84    1.7   189      4.9   841.6    0.00       0    999.0
 124   20:00   45.0    85    3.2   187      6.1   841.4    0.01       0    999.0
 124   20:10   44.8    86    3.9   175      6.9   841.3    0.00       0    999.0
 124   20:20   44.7    86    3.1   164      6.3   841.4    0.00       0    999.0
 124   20:30   44.7    86    1.4   356      3.7   841.6    0.00       0    999.0
 124   20:40   44.5    88    2.4   314      3.9   841.6    0.00       0    999.0
 124   20:50   44.6    88    0.8   342      2.6   841.6    0.00       0    999.0
 124   21:00   44.6    88    1.2     6      3.1   841.8    0.00       0    999.0
 124   21:10   44.8    86    1.0    35      3.1   841.8    0.00       0    999.0
 124   21:20   44.9    85    1.3    24      2.6   842.0    0.00       0    999.0
 124   21:30   44.8    86    1.0   330      3.1   841.9    0.00       0    999.0
 124   21:40   44.6    87    1.4   322      2.1   842.0    0.01       0    999.0
 124   21:50   44.5    88    0.4   330      1.9   841.8    0.00       0    999.0
 124   22:00   44.3    87    1.3   134      2.6   841.7    0.00       0    999.0
 124   22:10   44.2    88    0.8    34      2.1   841.5    0.00       0    999.0
 124   22:20   44.1    88    1.4    60      3.1   841.5    0.00       0    999.0
 124   22:30   44.0    88    1.1   318      2.8   841.7    0.00       0    999.0
 124   22:40   44.0    88    1.4    29      4.6   841.8    0.00       0    999.0
 124   22:50   43.8    86    1.3    36      3.1   842.0    0.01       0    999.0
 124   23:00   43.5    87    2.0    49      3.6   842.1    0.00       0    999.0
 124   23:10   43.4    88    2.1   334      3.9   842.3    0.01       0    999.0
 124   23:20   43.3    89    2.6   310      4.8   842.2    0.03       0    999.0
 124   23:30   43.1    90    2.3    76      5.0   842.2    0.04       0    999.0
 124   23:40   42.9    91    1.8    62      4.7   842.2    0.04       0    999.0
 124   23:50   42.7    91    2.2   109      4.2   842.0    0.01       0    999.0
 125    0:00   42.6    91    1.9    88      4.2   841.8    0.00       0    999.0
 125    0:10   42.7    92    1.7    68      3.1   841.9    0.00       0    999.0
 125    0:20   42.8    92    1.4    26      2.9   842.0    0.00       0    999.0
 125    0:30   42.7    92    1.5     1      3.4   842.0    0.00       0    999.0
 125    0:40   42.5    92    1.4    20      2.8   842.1    0.00       0    999.0
 125    0:50   42.6    92    0.5   302      2.5   842.1    0.00       0    999.0
 125    1:00   42.7    92    1.4    13      2.9   841.8    0.01       0    999.0
 125    1:10   42.7    92    2.2    62      3.4   841.8    0.00       0    999.0
 125    1:20   42.7    92    1.0   347      2.6   841.7    0.00       0    999.0
 125    1:30   42.7    92    2.5   108      4.3   841.7    0.00       0    999.0
 125    1:40   42.8    92    1.7    73      4.1   841.8    0.00       0    999.0
 125    1:50   42.8    92    1.2   250      2.6   841.6    0.00       0    999.0
 125    2:00   42.8    93    1.2     8      2.9   841.6    0.00       0    999.0
 125    2:10   42.9    92    2.3    60      4.2   841.5    0.00       0    999.0
 125    2:20   42.9    93    1.3    60      2.5   841.4    0.00       0    999.0
 125    2:30   42.9    93    0.6    94      1.5   841.3    0.00       0    999.0
 125    2:40   43.0    93    0.3    60      1.5   841.2    0.00       0    999.0
 125    2:50   42.9    93    1.4    97      2.5   841.3    0.00       0    999.0
 125    3:00   42.8    93    1.6    73      2.9   841.3    0.00       0    999.0
 125    3:10   42.8    93    1.3   103      3.0   841.4    0.00       0    999.0
 125    3:20   42.8    92    0.5   220      1.5   841.2    0.00       0    999.0
 125    3:30   42.9    92    0.5   172      1.4   841.1    0.00       0    999.0
 125    3:40   42.9    92    0.3   129      1.1   841.2    0.00       0    999.0
 125    3:50   42.9    92    0.7     6      1.3   841.3    0.00       0    999.0
 125    4:00   43.1    92    0.1   286      0.9   841.3    0.00       0    999.0
 125    4:10   43.1    92    1.1   298      1.6   841.3    0.00       0    999.0
 125    4:20   43.2    92    0.8   297      1.7   841.2    0.00       0    999.0
 125    4:30   43.3    92    0.0     0      0.0   841.3    0.00       0    999.0
 125    4:40   43.4    92    0.9   266      2.6   841.2    0.00       0    999.0
 125    4:50   43.4    92    1.5   194      3.2   841.2    0.00       0    999.0
 125    5:00   43.4    92    2.4   138      3.9   841.3    0.00       1    999.0
 125    5:10   43.4    92    1.9   117      3.6   841.4    0.00       1    999.0
 125    5:20   43.3    92    1.7    35      4.6   841.4    0.00       3    999.0

Return to Yerington, Nevada graphs page.


Western Regional Climate Center,wrcc@dri.edu